Le nostre stazioni meteo in Italia

Pubblicità
Il mio iltempo24.it
Bari, Italia (16271): Temperatura & dewpoint: 10.07.2018 20:00:00 - 16.07.2018 20:00:00 (CEST)Bari, Italia (16271): velocità del vento: 10.07.2018 20:00:00 - 16.07.2018 20:00:00 (CEST)Bari, Italia (16271): direzione del vento: 10.07.2018 20:00:00 - 16.07.2018 20:00:00 (CEST)Bari, Italia (16271): reduced air pressure: 10.07.2018 20:00:00 - 16.07.2018 20:00:00 (CEST)Bari, Italia (16271): precipitazioni: 10.07.2018 20:00:00 - 16.07.2018 20:00:00 (CEST)
Data & Tempo tt [°C] td [°C] ff [km/h] ff [kn] dd ppp [hPa] rr [mm]
16.07.2018 20:00:00 - - - - - - -
16.07.2018 19:00:00 28,7 21,9 8 4 E 1012,6 -
16.07.2018 18:00:00 28,5 21,5 18 10 E 1011,9 -
16.07.2018 17:00:00 29,2 20,6 18 10 E 1013,0 -
16.07.2018 16:00:00 29,5 21,4 16 9 O 1012,9 -
16.07.2018 15:00:00 30,1 21,4 18 10 O 1013,1 -
16.07.2018 14:00:00 30,3 20,2 18 10 NE 1013,2 0,0
16.07.2018 13:00:00 30,1 20,3 16 9 NE 1013,6 -
16.07.2018 12:00:00 30,1 17,8 13 7 NE 1013,8 -
16.07.2018 11:00:00 30,1 19,7 4 2 S 1013,8 -
16.07.2018 10:00:00 28,4 20,1 5 3 S 1014,3 -
16.07.2018 09:00:00 27,1 18,1 2 1 S 1014,0 -
16.07.2018 08:00:00 27,7 15,6 0 0 N 1013,1 0,0
16.07.2018 07:00:00 24,6 14,0 5 3 S 1012,9 -
16.07.2018 06:00:00 24,2 13,9 9 5 S 1012,8 -
16.07.2018 05:00:00 24,6 15,2 8 4 S 1013,2 -
16.07.2018 04:00:00 24,7 17,9 5 3 O 1013,8 -
16.07.2018 03:00:00 24,9 18,3 5 3 O 1014,0 -
16.07.2018 02:00:00 25,4 20,1 5 3 O 1013,9 0,0
16.07.2018 01:00:00 26,6 21,5 4 2 NO 1013,9 -
16.07.2018 00:00:00 26,4 21,3 5 3 NO 1013,9 -
15.07.2018 23:00:00 26,4 23,0 5 3 NO 1013,9 -
15.07.2018 22:00:00 26,7 21,4 9 5 NO 1013,6 -
15.07.2018 21:00:00 27,1 21,8 4 2 S 1013,0 -
15.07.2018 20:00:00 27,0 21,7 5 3 NE 1012,9 0,0
15.07.2018 19:00:00 27,8 23,6 11 6 O 1012,5 -
15.07.2018 18:00:00 27,4 23,0 18 10 O 1012,4 -
15.07.2018 17:00:00 27,4 20,9 22 12 O 1012,7 -
15.07.2018 16:00:00 27,8 20,3 24 13 E 1012,8 -
15.07.2018 15:00:00 29,1 20,8 22 12 NE 1013,2 -
15.07.2018 14:00:00 29,3 20,4 18 10 NE 1013,4 0,0
15.07.2018 13:00:00 29,0 20,1 22 12 NE 1013,8 -
15.07.2018 12:00:00 28,8 19,1 16 9 NE 1013,7 -
15.07.2018 11:00:00 28,6 15,8 8 4 NE 1013,9 -
15.07.2018 10:00:00 28,3 16,8 8 4 NE 1013,8 -
15.07.2018 09:00:00 27,7 11,3 5 3 O 1014,1 -
15.07.2018 08:00:00 26,0 7,1 5 3 O 1014,1 0,0
15.07.2018 07:00:00 24,2 6,0 11 6 O 1014,3 -
15.07.2018 06:00:00 23,8 6,5 9 5 O 1014,3 -
15.07.2018 05:00:00 23,9 6,6 9 5 O 1014,4 -
15.07.2018 04:00:00 24,1 11,1 5 3 O 1014,6 -
15.07.2018 03:00:00 24,6 13,1 5 3 O 1014,7 -
15.07.2018 02:00:00 25,3 15,0 4 2 O 1015,0 0,0
15.07.2018 01:00:00 25,0 15,0 8 4 O 1015,3 -
15.07.2018 00:00:00 26,5 16,4 4 2 NO 1015,3 -
14.07.2018 23:00:00 26,8 15,1 4 2 NO 1015,5 -
14.07.2018 22:00:00 26,8 18,8 5 3 NO 1015,4 -
14.07.2018 21:00:00 27,6 13,8 2 1 NO 1015,0 -
14.07.2018 20:00:00 27,7 18,1 4 2 NO 1015,2 0,0
14.07.2018 19:00:00 28,2 19,1 5 3 NO 1015,7 -
14.07.2018 18:00:00 28,5 19,7 5 3 NO 1015,9 -
14.07.2018 17:00:00 28,9 21,1 8 4 NO 1016,2 -
14.07.2018 16:00:00 28,9 21,6 13 7 NO 1016,5 -
14.07.2018 15:00:00 28,8 21,8 16 9 NO 1017,0 -
14.07.2018 14:00:00 28,8 21,3 15 8 NO 1017,2 0,0
14.07.2018 13:00:00 28,3 21,0 13 7 NO 1017,7 -
14.07.2018 12:00:00 27,6 21,1 16 9 NO 1017,9 -
14.07.2018 11:00:00 27,1 20,4 16 9 NO 1018,1 -
14.07.2018 10:00:00 26,4 19,5 15 8 NO 1017,9 -
14.07.2018 09:00:00 26,4 19,7 15 8 NO 1017,7 -
14.07.2018 08:00:00 25,8 18,4 13 7 NO 1017,3 0,0
14.07.2018 07:00:00 25,2 18,1 9 5 O 1017,0 -
14.07.2018 06:00:00 24,9 17,8 9 5 NO 1016,7 -
14.07.2018 05:00:00 25,0 17,4 8 4 O 1016,9 -
14.07.2018 04:00:00 25,2 15,4 5 3 O 1016,7 -
14.07.2018 03:00:00 25,7 15,6 8 4 O 1016,8 -
14.07.2018 02:00:00 26,4 16,0 5 3 NO 1017,0 0,0
14.07.2018 01:00:00 26,7 15,0 5 3 O 1017,3 -
14.07.2018 00:00:00 27,4 15,0 8 4 O 1017,6 -
13.07.2018 23:00:00 27,4 16,0 8 4 O 1017,8 -
13.07.2018 22:00:00 27,1 18,3 9 5 O 1017,7 -
13.07.2018 21:00:00 26,8 19,6 5 3 NO 1017,0 -
13.07.2018 20:00:00 27,1 20,6 4 2 NE 1016,5 0,0
13.07.2018 19:00:00 28,4 21,1 4 2 NE 1016,1 -
13.07.2018 18:00:00 29,0 21,7 9 5 NE 1016,1 -
13.07.2018 17:00:00 28,8 21,3 11 6 NE 1016,3 -
13.07.2018 16:00:00 29,3 22,2 11 6 NE 1016,6 -
13.07.2018 15:00:00 29,0 21,7 13 7 NE 1017,0 -
13.07.2018 14:00:00 28,9 21,6 15 8 NE 1017,4 0,0
13.07.2018 13:00:00 28,5 22,0 15 8 NO 1017,6 -
13.07.2018 12:00:00 27,9 21,9 11 6 NO 1017,8 -
13.07.2018 11:00:00 27,2 22,8 11 6 NO 1017,7 -
13.07.2018 10:00:00 26,6 21,3 13 7 NO 1017,3 -
13.07.2018 09:00:00 25,9 19,0 18 10 NO 1017,3 -
13.07.2018 08:00:00 25,9 19,5 21 11 NO 1016,9 0,0
13.07.2018 07:00:00 25,4 18,5 9 5 NO 1016,7 -
13.07.2018 06:00:00 24,7 16,9 4 2 O 1016,2 -
13.07.2018 05:00:00 25,0 16,6 5 3 O 1015,9 -
13.07.2018 04:00:00 25,4 17,0 8 4 O 1016,0 -
13.07.2018 03:00:00 25,6 17,7 9 5 O 1016,0 -
13.07.2018 02:00:00 26,1 17,9 8 4 O 1016,1 0,0
13.07.2018 01:00:00 27,2 19,2 2 1 S 1016,0 -
13.07.2018 00:00:00 27,1 19,1 4 2 S 1015,9 -
12.07.2018 23:00:00 27,1 20,6 2 1 E 1015,8 -
12.07.2018 22:00:00 26,4 21,1 4 2 E 1015,7 -
12.07.2018 21:00:00 26,7 21,4 4 2 E 1015,2 -
12.07.2018 20:00:00 26,7 22,5 11 6 E 1015,0 0,0
12.07.2018 19:00:00 27,2 20,2 16 9 O 1014,8 -
12.07.2018 18:00:00 27,1 20,1 18 10 E 1014,6 -
12.07.2018 17:00:00 27,3 21,1 18 10 O 1015,0 -
12.07.2018 16:00:00 27,9 20,4 18 10 O 1015,1 -
12.07.2018 15:00:00 28,8 21,3 16 9 NE 1015,4 -
12.07.2018 14:00:00 28,8 20,7 16 9 NE 1015,6 0,0
12.07.2018 13:00:00 29,1 20,5 18 10 NE 1015,8 -
12.07.2018 12:00:00 28,6 20,6 16 9 NO 1015,6 -
12.07.2018 11:00:00 28,6 20,6 13 7 NO 1015,3 -
12.07.2018 10:00:00 27,6 17,1 8 4 NE 1015,0 -
12.07.2018 09:00:00 27,1 17,2 8 4 NO 1014,8 -
12.07.2018 08:00:00 26,1 12,8 5 3 O 1014,5 0,0
12.07.2018 07:00:00 24,8 11,0 15 8 S 1014,3 -
12.07.2018 06:00:00 24,7 9,8 13 7 S 1013,9 -
12.07.2018 05:00:00 25,3 8,7 11 6 S 1013,7 -
12.07.2018 04:00:00 25,2 11,0 15 8 S 1013,6 -
12.07.2018 03:00:00 25,2 11,7 11 6 S 1013,7 -
12.07.2018 02:00:00 25,8 12,9 11 6 S 1013,9 0,0
12.07.2018 01:00:00 26,2 13,6 11 6 S 1013,9 -
12.07.2018 00:00:00 27,1 12,7 9 5 S 1013,8 -
11.07.2018 23:00:00 28,1 9,9 15 8 S 1013,5 -
11.07.2018 22:00:00 28,0 14,6 13 7 S 1013,1 -
11.07.2018 21:00:00 28,9 11,5 9 5 S 1012,6 -
11.07.2018 20:00:00 26,5 22,3 18 10 E 1012,5 0,0
11.07.2018 19:00:00 26,5 19,8 29 16 E 1012,0 -
11.07.2018 18:00:00 26,5 19,8 29 16 E 1012,1 -
11.07.2018 17:00:00 26,3 19,4 31 17 O 1012,4 -
11.07.2018 16:00:00 26,4 22,2 31 17 O 1012,4 -
11.07.2018 15:00:00 26,4 19,7 31 17 O 1012,7 -
11.07.2018 14:00:00 26,5 20,3 31 17 O 1012,8 0,0
11.07.2018 13:00:00 26,5 19,8 29 16 O 1013,2 -
11.07.2018 12:00:00 26,6 19,9 24 13 O 1013,5 -
11.07.2018 11:00:00 26,7 19,8 21 11 O 1013,5 -
11.07.2018 10:00:00 28,0 18,6 8 4 NO 1013,6 -
11.07.2018 09:00:00 27,3 15,3 4 2 S 1013,6 -
11.07.2018 08:00:00 24,5 15,6 8 4 S 1013,5 0,0
11.07.2018 07:00:00 22,5 15,0 8 4 S 1013,3 -
11.07.2018 06:00:00 21,5 14,3 9 5 S 1013,1 -
11.07.2018 05:00:00 22,0 14,0 11 6 S 1013,1 -
11.07.2018 04:00:00 22,0 14,0 11 6 S 1013,1 -
11.07.2018 03:00:00 22,3 13,8 9 5 S 1013,6 -
11.07.2018 02:00:00 23,0 14,2 9 5 S 1014,0 0,0
11.07.2018 01:00:00 23,6 14,5 8 4 S 1014,2 -
11.07.2018 00:00:00 24,3 14,9 5 3 S 1014,4 -
10.07.2018 23:00:00 24,8 14,8 5 3 S 1014,3 -
10.07.2018 22:00:00 25,3 15,0 5 3 O 1014,2 -
10.07.2018 21:00:00 25,4 16,2 4 2 NO 1013,6 -
10.07.2018 20:00:00 26,0 17,3 2 1 NO 1013,5 0,0

tt = Temperatura
td = dewpoint
ff = velocità del vento
dd = direzione del vento
ppp = reduced air pressure
rr = precipitazioni

Stazioni seguenti

WeatherPro
AMSI
MeteoEarth